Theta_e
314 312 312 312 308 307 307 309 309 305 305 312 312 309 314 319 309 312 312 313 311 309 309 310 317 321 322 317 314 311 307 309 312 313 312 310 311 310 311 311 311 311 313 316 316
313 312 312 311 309 308 309 309 309 307 309 311 309 309 311 311 315 313 315 315 312 307 308 312 318 321 320 314 311 308 307 310 309 309 310 309 310 309 310 310 310 311 312 312 312
312 313 312 312 309 308 308 309 309 310 310 308 308 310 311 311 313 313 314 314 308 309 309 314 318 320 313 310 309 308 309 309 310 310 310 309 309 308 308 308 309 310 310 309 309
310 311 313 312 313 309 308 309 309 309 307 307 308 312 312 312 311 313 312 308 307 309 311 315 317 314 308 308 308 309 310 310 309 308 308 307 307 306 308 308 309 308 309 309 309
309 309 311 311 312 307 309 309 309 308 309 310 311 310 312 311 309 308 309 309 308 310 312 315 317 310 307 307 307 308 309 309 308 307 308 308 307 307 307 308 308 308 308 308 309
306 308 309 312 310 312 314 313 314 313 311 310 309 311 310 307 307 308 308 308 309 310 310 313 311 310 307 307 306 308 307 307 308 308 309 308 307 308 308 308 309 309 309 309 309
306 306 308 309 310 311 313 314 313 312 311 311 310 309 307 307 307 308 308 308 309 310 309 308 309 309 308 306 307 307 307 307 307 308 309 307 306 306 308 309 309 309 309 309 309
306 306 308 308 309 310 311 312 311 311 309 310 310 308 307 307 307 308 308 308 309 309 309 309 309 308 307 307 306 304 303 306 307 308 309 306 306 305 308 308 309 309 309 309 309
306 306 307 308 308 309 309 310 312 312 312 312 311 309 307 307 308 308 308 308 309 309 309 309 309 307 306 303 303 302 304 307 309 308 308 308 306 306 308 308 309 309 309 309 309
306 306 306 307 307 309 308 309 309 311 309 311 310 309 307 307 306 306 308 308 309 309 309 308 308 303 302 302 305 306 306 309 308 307 307 307 306 306 308 308 308 309 309 309 310
305 306 307 308 307 307 308 309 309 307 307 307 307 307 307 307 307 307 307 307 308 308 306 305 305 302 305 305 304 304 306 307 307 308 308 307 306 307 307 307 307 308 308 309 311
305 305 306 307 307 308 308 308 308 307 307 307 306 307 306 307 308 308 308 308 308 306 305 304 305 305 305 304 305 304 306 306 306 308 308 306 307 307 306 307 308 308 308 310 311
305 305 305 305 305 307 307 307 307 307 306 306 306 306 306 306 305 306 308 307 305 304 303 304 306 305 306 306 307 307 306 308 308 307 307 305 304 303 306 308 309 308 309 310 311
304 305 305 305 305 305 306 308 307 306 302 305 305 306 305 307 305 306 307 307 305 305 304 304 305 307 307 307 306 309 308 308 308 307 303 304 304 304 306 307 307 309 309 310 311
306 305 305 305 305 305 305 308 307 306 306 303 304 305 305 305 305 306 306 307 305 305 303 303 307 307 308 307 307 309 307 308 308 308 300 306 301 304 306 310 306 307 310 311 311
310 308 307 305 306 306 307 308 305 302 300 300 304 303 305 306 306 307 308 307 306 305 304 305 305 305 306 306 306 307 308 304 304 304 300 305 303 307 304 309 311 308 309 311 311
308 310 311 308 307 307 308 305 302 301 300 301 304 304 304 305 306 306 306 305 306 302 306 305 306 306 306 309 308 306 305 299 299 300 303 305 304 308 307 306 308 309 311 311 310
307 308 309 311 308 308 305 300 300 299 302 301 304 305 306 306 306 306 306 307 307 304 304 301 301 307 307 309 309 310 306 299 300 302 303 305 307 308 306 309 309 309 311 311 310
307 309 309 312 307 306 303 297 298 301 303 305 306 305 306 306 306 306 307 306 307 306 305 308 308 308 307 309 308 311 307 306 298 303 309 301 302 305 305 305 308 310 311 312 311
307 309 309 310 309 304 301 303 304 302 305 305 306 305 306 306 307 307 307 306 309 307 306 306 307 307 309 309 309 309 307 307 304 307 307 304 301 307 304 311 309 308 311 313 312
307 308 308 311 308 305 299 300 306 307 308 307 307 308 306 308 307 308 308 308 308 308 307 305 302 306 310 309 308 310 309 307 306 304 307 311 308 302 304 308 309 309 311 312 312
305 303 309 310 307 302 300 305 306 307 308 308 308 308 307 306 309 309 309 307 309 308 309 308 305 305 309 308 306 307 308 307 306 306 310 309 311 308 305 306 308 309 311 311 312
306 308 309 309 302 302 306 308 308 307 308 308 309 309 308 308 311 308 309 309 309 308 309 308 305 302 306 307 308 309 307 306 305 306 310 309 309 305 306 308 310 311 311 310 311
306 301 307 309 306 304 307 308 309 309 309 309 309 309 309 310 308 310 310 309 309 310 310 308 305 305 301 307 308 310 309 307 308 311 309 310 308 308 306 305 307 310 311 310 309
306 303 302 303 304 305 306 306 308 309 308 309 308 308 308 309 309 309 308 309 308 310 309 306 308 302 303 304 305 307 308 307 309 311 310 308 309 309 305 304 306 308 308 308 309
304 304 304 304 305 306 305 306 308 308 307 308 307 307 306 307 306 306 307 307 307 308 307 304 307 305 304 304 304 306 305 305 307 309 310 311 311 310 310 309 307 307 308 307 307
305 305 305 302 302 304 303 305 306 307 308 307 307 306 306 306 308 308 307 306 306 306 306 305 305 303 304 303 303 303 303 305 305 304 308 309 308 307 305 304 305 306 306 306 306
Wind_Speed
36 36 30 24 7 10 14 16 14 13 15 12 11 14 17 19 22 18 14 4 4 11 14 18 20 20 14 7 5 3 4 2 5 5 4 1 2 3 3 3 4 3 4 7 8
39 37 34 30 5 14 11 12 10 10 12 14 9 11 16 16 19 21 9 7 4 12 17 19 21 20 9 5 4 5 4 4 1 1 3 3 3 1 2 2 3 6 7 7 6
36 38 39 31 14 8 10 13 12 12 13 11 12 12 15 20 14 4 7 11 14 13 17 19 20 19 8 6 4 3 3 3 3 3 3 2 3 2 3 2 2 5 8 4 3
35 38 36 36 19 14 13 15 16 14 15 16 13 17 28 15 4 1 6 16 18 17 17 19 18 7 5 5 3 6 5 2 3 4 3 3 3 2 1 2 3 4 6 3 5
34 35 36 35 36 20 18 15 18 22 21 20 20 23 22 11 5 10 13 12 16 17 18 18 17 8 5 5 4 5 3 6 6 7 7 3 3 3 6 5 10 10 9 8 7
29 31 34 33 34 35 28 24 27 29 28 23 21 18 12 12 14 16 15 14 16 17 19 18 10 13 11 5 6 4 9 5 6 6 6 5 2 6 1 2 3 3 3 3 5
35 22 29 31 31 32 31 26 39 34 28 23 25 27 29 14 20 20 19 17 15 15 17 18 16 4 8 6 6 5 4 3 8 5 4 7 3 5 5 4 3 2 1 5 9
40 20 25 29 29 30 28 37 32 33 33 22 34 29 14 19 18 20 20 19 17 14 18 15 13 18 7 13 6 5 5 3 4 4 4 4 7 3 3 2 4 5 7 10 11
35 34 18 23 27 28 30 29 30 29 27 19 23 19 7 13 18 17 16 18 17 16 17 11 9 9 6 5 5 7 2 1 2 3 4 3 6 3 3 6 15 17 20 17 14
28 30 26 13 16 20 29 30 27 24 20 17 10 8 11 12 16 16 15 13 14 13 10 9 7 5 5 5 4 4 4 1 1 5 4 5 10 12 21 15 23 24 23 22 15
21 23 26 28 17 10 17 24 17 20 40 23 16 17 16 20 17 13 14 14 11 10 5 8 9 4 3 3 2 5 4 3 0 2 3 4 10 17 17 19 25 27 23 16 12
17 14 12 17 24 36 34 33 21 14 16 26 28 24 23 16 15 15 9 5 7 5 3 7 4 2 3 5 6 6 3 3 3 1 2 4 15 18 16 9 10 13 11 10 9
15 12 10 6 9 11 23 25 18 14 7 21 19 22 15 19 12 16 9 7 8 6 6 6 1 3 4 5 6 4 5 1 2 5 0 7 8 6 2 4 4 4 7 9 8
16 12 9 7 5 8 10 5 6 5 5 9 10 12 14 4 7 16 8 5 7 4 3 6 4 3 4 4 2 1 1 1 2 4 3 4 5 7 2 6 5 11 12 11 9
16 15 10 9 5 8 7 5 0 2 6 8 7 5 9 8 1 11 12 10 4 3 3 2 2 4 4 1 1 1 1 1 1 3 4 1 2 8 3 5 7 15 18 14 10
15 15 13 7 8 7 7 6 4 6 1 6 5 5 4 8 3 4 6 11 4 6 6 2 1 2 1 1 2 2 3 5 4 2 2 1 4 6 4 5 2 3 13 17 13
12 13 13 11 7 6 5 3 5 7 4 4 2 4 3 6 6 5 5 5 3 5 4 5 3 3 1 2 2 4 4 3 5 3 5 1 1 11 6 7 5 5 7 11 13
7 11 11 10 8 5 4 6 10 3 2 4 4 5 4 4 4 4 3 3 3 4 3 4 5 1 1 1 3 1 4 4 5 2 5 0 7 6 5 5 8 11 12 12 15
7 5 15 12 9 4 2 7 6 5 2 2 3 4 5 3 2 3 1 4 3 4 4 4 2 1 1 1 2 2 0 3 5 1 3 3 8 10 7 9 11 13 14 18 17
7 3 14 13 8 4 6 5 4 6 6 3 2 2 2 3 3 2 2 2 3 5 3 5 2 1 1 2 3 2 4 3 2 1 5 5 6 6 4 4 5 9 19 19 17
4 1 13 13 6 8 4 1 3 4 3 4 5 3 2 1 2 1 1 2 2 2 3 4 3 2 2 6 7 2 2 2 2 4 3 4 6 7 8 7 8 11 13 13 14
4 3 10 11 5 4 2 4 3 3 1 1 2 2 5 6 4 2 3 5 8 5 4 1 3 4 7 1 4 4 6 6 3 4 4 2 9 4 8 8 8 9 9 10 12
4 3 8 8 3 2 1 2 2 3 2 1 2 3 2 5 2 4 3 2 8 5 5 3 1 2 5 3 1 4 5 4 3 3 7 4 6 2 5 7 14 16 18 15 18
5 3 6 8 7 6 3 1 2 2 1 2 1 2 2 1 2 1 2 2 6 3 2 3 2 5 5 2 3 4 5 8 6 4 3 13 9 15 8 7 12 19 23 29 30
7 2 3 2 5 3 2 5 2 3 3 5 2 5 5 2 1 3 2 1 1 3 3 3 3 1 6 9 7 11 10 9 15 17 10 3 14 25 6 9 21 29 33 35 33
5 3 2 2 1 2 2 4 5 2 4 3 4 1 5 5 7 5 4 4 5 1 4 1 3 1 5 7 6 12 16 18 20 20 22 23 29 29 39 28 24 26 27 29 30
7 4 2 2 2 2 3 3 3 4 5 4 5 2 3 11 16 11 8 6 5 8 7 5 2 2 5 4 9 10 15 22 10 10 25 18 28 15 15 14 18 24 26 29 31
Wind_Direction
10 9 7 13 221 204 195 204 219 205 209 200 199 192 179 171 151 134 105 38 171 163 160 151 145 148 142 110 94 82 62 126 169 159 147 55 95 60 77 111 86 90 118 136 166
22 21 21 15 30 198 195 196 201 182 176 191 187 178 199 139 139 133 113 137 155 158 157 152 141 147 126 96 54 70 85 171 86 49 130 89 94 73 83 71 99 112 126 135 167
22 20 28 26 56 111 169 173 161 161 163 160 157 165 178 149 143 127 148 164 144 149 153 152 143 143 85 85 35 71 112 151 59 65 82 80 85 38 112 279 209 191 159 162 217
23 24 29 34 55 119 107 132 146 138 142 139 141 142 151 152 166 198 156 147 151 143 143 148 145 104 74 88 59 95 70 71 95 44 57 43 347 18 214 181 81 186 192 256 281
24 25 31 32 35 124 110 129 140 137 134 137 130 137 141 114 64 95 112 127 145 138 139 148 142 101 89 99 78 72 100 67 74 58 60 357 352 310 274 280 268 238 257 282 275
18 24 34 38 40 48 82 108 124 124 130 131 133 134 107 81 79 96 104 121 137 141 128 142 143 122 92 67 63 81 88 90 52 47 35 15 327 337 177 96 45 119 172 239 266
26 25 38 45 45 57 68 83 114 119 118 117 135 134 88 72 88 97 102 110 130 136 120 121 123 125 104 90 101 87 73 52 21 15 18 345 279 238 278 294 180 157 290 289 286
31 40 44 50 55 66 68 90 89 102 115 106 125 110 72 74 91 106 100 104 122 128 111 100 107 99 72 112 50 60 50 90 337 358 4 22 268 263 328 215 246 265 303 299 284
35 33 40 57 54 71 76 78 97 114 119 120 97 85 48 81 91 97 106 100 112 108 97 104 98 74 73 75 41 14 147 93 8 10 346 59 273 255 216 291 291 283 291 293 281
25 25 31 29 57 63 75 93 84 105 101 98 57 86 60 59 77 91 107 115 113 109 89 56 61 73 38 54 191 168 112 62 40 330 356 312 273 279 284 280 280 284 283 284 274
12 45 41 47 50 61 99 101 75 53 62 72 71 74 67 72 75 82 104 108 107 70 58 31 63 84 68 29 113 118 96 107 314 28 342 265 282 280 285 279 281 283 278 260 256
6 26 55 68 61 76 94 87 88 105 62 66 62 62 59 66 64 59 82 85 63 65 3 34 68 344 293 61 79 54 84 9 283 221 359 327 286 278 281 260 270 283 238 233 244
6 8 27 41 59 63 79 96 104 105 77 36 29 33 34 61 46 27 51 68 70 50 34 100 198 331 84 46 67 34 113 113 242 325 13 328 284 297 267 276 277 236 221 230 252
19 16 14 26 32 49 67 90 130 141 88 352 358 18 4 48 51 32 44 68 48 108 71 76 348 70 71 70 71 119 197 60 346 38 263 28 277 295 345 281 251 240 231 236 258
29 31 23 36 51 35 25 23 359 198 67 315 332 360 31 84 144 15 35 68 80 89 81 265 44 67 71 92 8 131 98 33 54 71 37 359 52 269 333 283 253 239 234 239 262
27 33 32 36 49 40 33 1 348 41 348 333 331 351 39 38 51 73 64 75 105 72 42 86 56 60 117 68 76 125 89 47 53 67 1 216 130 278 226 212 259 258 236 236 255
25 31 29 25 10 15 20 2 39 79 328 291 358 2 76 20 32 42 33 27 73 80 17 9 349 330 34 70 27 72 58 340 349 8 225 151 21 248 261 240 228 240 244 238 244
6 19 23 28 19 1 45 52 63 261 267 331 1 5 43 12 24 30 61 53 51 91 98 126 325 178 137 178 183 57 138 153 226 256 284 304 236 252 231 250 262 251 254 254 245
3 3 14 21 27 26 137 56 172 209 196 56 360 27 357 354 82 60 56 177 209 182 134 148 271 297 199 97 102 170 231 155 99 210 283 252 284 287 254 263 253 254 251 254 254
347 344 12 8 16 30 69 127 151 190 148 125 65 50 312 330 13 27 217 205 205 202 170 202 108 246 188 109 40 190 151 83 9 286 286 285 277 241 305 247 224 240 244 253 257
357 20 2 2 23 53 92 138 164 178 150 136 167 145 152 278 176 260 263 316 213 225 201 137 105 263 93 203 181 144 206 93 127 156 194 299 263 213 219 212 205 226 236 252 260
350 44 7 360 40 35 79 124 130 164 195 158 161 158 166 167 189 229 220 218 184 171 183 200 151 194 207 203 168 180 182 161 138 216 222 254 273 247 233 241 236 248 250 252 267
18 4 15 15 86 37 62 98 122 131 200 195 261 219 181 175 180 199 215 326 176 164 169 191 299 359 349 18 23 218 196 171 121 112 202 169 259 284 283 277 255 262 263 270 304
355 16 29 51 75 120 123 125 151 188 193 192 243 17 4 289 206 215 230 162 190 201 178 133 179 206 200 193 134 221 206 194 170 185 206 227 280 264 279 270 277 272 276 288 296
12 46 30 344 15 79 99 156 146 203 208 198 213 204 175 198 241 244 219 117 159 189 129 115 259 202 268 259 246 243 236 202 210 221 205 208 234 266 237 253 267 282 285 291 297
21 360 28 78 76 100 26 220 191 198 172 243 200 151 198 203 190 197 163 200 207 106 153 121 262 131 278 279 253 262 244 228 229 230 245 257 274 268 276 280 276 272 282 289 291
10 355 346 342 76 100 223 184 224 185 230 227 218 178 206 237 244 253 248 248 201 165 183 159 184 13 265 327 297 277 243 215 210 216 223 236 245 277 283 276 274 289 292 288 291